,,Stat6,,Stat2,,Stat8,,Stat9,,Stat10,,Wind1,,Wind1,
time,status,PA1M_AVG,status,PR1M_SUM,status,RH1M_AVG,status,SR1M_AVG,status,TA1M_AVG,status,W1dAve1m,status,W1sAve1m,
2007-04-06, 00:00:00,VALID,917.695,VALID,0,VALID,91.4602,VALID,-0.0679233,VALID,20.923,VALID,138,VALID,1.26847,
2007-04-06, 00:01:00,VALID,917.679,VALID,0,VALID,91.5085,VALID,-0.0339617,VALID,20.9,VALID,150,VALID,1.60728,
2007-04-06, 00:02:00,VALID,917.642,VALID,0,VALID,91.4309,VALID,-0.0169808,VALID,20.8935,VALID,136,VALID,1.84482,
2007-04-06, 00:03:00,VALID,917.623,VALID,0,VALID,91.3839,VALID,-0.0509425,VALID,20.9097,VALID,137,VALID,1.57891,
2007-04-06, 00:04:00,VALID,917.577,VALID,0,VALID,91.4436,VALID,-0.0339617,VALID,20.9095,VALID,147,VALID,1.55556,
2007-04-06, 00:05:01,VALID,917.559,VALID,0,VALID,91.4792,VALID,0,VALID,20.9033,VALID,132,VALID,1.53906,
2007-04-06, 00:06:00,VALID,917.531,VALID,0,VALID,91.586,VALID,-0.0339617,VALID,20.887,VALID,128,VALID,1.52744,
2007-04-06, 00:07:00,VALID,917.506,VALID,0,VALID,91.7094,VALID,0,VALID,20.8611,VALID,143,VALID,1.41744,
2007-04-06, 00:08:01,VALID,917.478,VALID,0,VALID,91.792,VALID,-0.0169808,VALID,20.8478,VALID,138,VALID,1.25888,
2007-04-06, 00:09:00,VALID,917.463,VALID,0,VALID,91.9014,VALID,0,VALID,20.8281,VALID,145,VALID,1.55214,
2007-04-06, 00:10:01,VALID,917.458,VALID,0,VALID,92.082,VALID,-0.0339617,VALID,20.8024,VALID,152,VALID,1.35061,
2007-04-06, 00:11:00,VALID,917.442,VALID,0,VALID,92.2867,VALID,0,VALID,20.7732,VALID,144,VALID,1.36198,
2007-04-06, 00:12:00,VALID,917.436,VALID,0,VALID,92.4317,VALID,-0.0169808,VALID,20.7442,VALID,143,VALID,1.44549,
2007-04-06, 00:13:01,VALID,917.416,VALID,0,VALID,92.5181,VALID,-0.0509425,VALID,20.7218,VALID,145,VALID,2.02207,
2007-04-06, 00:14:00,VALID,917.398,VALID,0,VALID,92.5169,VALID,-0.0339617,VALID,20.7247,VALID,150,VALID,1.98171,
2007-04-06, 00:15:01,VALID,917.396,VALID,0,VALID,92.4813,VALID,-0.0509425,VALID,20.731,VALID,153,VALID,1.80246,
2007-04-06, 00:16:01,VALID,917.377,VALID,0,VALID,92.508,VALID,-0.0169808,VALID,20.731,VALID,143,VALID,1.31556,
2007-04-06, 00:17:00,VALID,917.346,VALID,0,VALID,92.6199,VALID,0,VALID,20.7112,VALID,139,VALID,1.13225,
2007-04-06, 00:18:01,VALID,917.294,VALID,0,VALID,92.7788,VALID,-0.0509425,VALID,20.6955,VALID,155,VALID,1.56942,
2007-04-06, 00:19:00,VALID,917.27,VALID,0,VALID,92.8767,VALID,-0.0509425,VALID,20.6536,VALID,154,VALID,1.53678,
2007-04-06, 00:20:01,VALID,917.26,VALID,0,VALID,92.9581,VALID,-0.0849042,VALID,20.6471,VALID,158,VALID,1.20437,
2007-04-06, 00:21:01,VALID,917.253,VALID,0,VALID,93.0954,VALID,-0.0849042,VALID,20.6141,VALID,146,VALID,1.5625,
2007-04-06, 00:22:01,VALID,917.243,VALID,0,VALID,93.2518,VALID,-0.0509425,VALID,20.5982,VALID,156,VALID,2.17024,
2007-04-06, 00:23:01,VALID,917.235,VALID,0,VALID,93.2798,VALID,-0.0509425,VALID,20.5952,VALID,164,VALID,2.04669,
2007-04-06, 00:24:01,VALID,917.23,VALID,0,VALID,92.9187,VALID,-0.0169808,VALID,20.6239,VALID,156,VALID,2.23383,
2007-04-06, 00:25:01,VALID,917.231,VALID,0,VALID,92.6135,VALID,-0.0509425,VALID,20.6723,VALID,144,VALID,2.11204,
2007-04-06, 00:26:01,VALID,917.243,VALID,0,VALID,92.63,VALID,0,VALID,20.7018,VALID,155,VALID,1.63891,
2007-04-06, 00:27:00,VALID,917.242,VALID,0,VALID,92.7483,VALID,0,VALID,20.6661,VALID,146,VALID,1.82719,
2007-04-06, 00:28:00,VALID,917.247,VALID,0,VALID,92.8119,VALID,-0.0169808,VALID,20.6496,VALID,150,VALID,1.67251,
2007-04-06, 00:29:00,VALID,917.242,VALID,0,VALID,92.7419,VALID,0,VALID,20.6431,VALID,147,VALID,2.22456,
2007-04-06, 00:30:00,VALID,917.243,VALID,0,VALID,92.6313,VALID,-0.0169808,VALID,20.6755,VALID,145,VALID,2.05983,
2007-04-06, 00:31:00,VALID,917.217,VALID,0,VALID,92.5423,VALID,-0.0509425,VALID,20.6923,VALID,150,VALID,2.13337,
2007-04-06, 00:32:00,VALID,917.206,VALID,0,VALID,92.4635,VALID,-0.0339617,VALID,20.7118,VALID,153,VALID,1.99395,
2007-04-06, 00:33:00,VALID,917.197,VALID,0,VALID,92.527,VALID,0,VALID,20.6985,VALID,158,VALID,2.02307,
2007-04-06, 00:34:00,VALID,917.157,VALID,0,VALID,92.5855,VALID,-0.0339617,VALID,20.689,VALID,140,VALID,2.08173,
2007-04-06, 00:35:00,VALID,917.123,VALID,0,VALID,92.6021,VALID,-0.0509425,VALID,20.6888,VALID,140,VALID,2.03452,
2007-04-06, 00:36:00,VALID,917.096,VALID,0,VALID,92.6898,VALID,0,VALID,20.6593,VALID,122,VALID,2.0707,
2007-04-06, 00:37:00,VALID,917.091,VALID,0,VALID,92.775,VALID,-0.0169808,VALID,20.6404,VALID,120,VALID,1.78906,
2007-04-06, 00:38:00,VALID,917.038,VALID,0,VALID,92.8907,VALID,-0.0339617,VALID,20.6114,VALID,132,VALID,1.83259,
2007-04-06, 00:39:00,VALID,916.996,VALID,0,VALID,92.9912,VALID,-0.0339617,VALID,20.5825,VALID,135,VALID,1.82924,
2007-04-06, 00:40:00,VALID,916.969,VALID,0,VALID,93.07,VALID,-0.0169808,VALID,20.556,VALID,140,VALID,1.63449,
2007-04-06, 00:41:00,VALID,916.956,VALID,0,VALID,93.0993,VALID,-0.0679233,VALID,20.5365,VALID,146,VALID,1.84896,
2007-04-06, 00:42:00,VALID,916.959,VALID,0,VALID,92.9518,VALID,-0.0679233,VALID,20.5527,VALID,148,VALID,1.78289,
2007-04-06, 00:43:00,VALID,916.959,VALID,0,VALID,92.864,VALID,-0.0679233,VALID,20.569,VALID,160,VALID,1.25286,
2007-04-06, 00:44:00,VALID,916.97,VALID,0,VALID,92.9225,VALID,-0.0679233,VALID,20.5627,VALID,146,VALID,1.76895,
2007-04-06, 00:45:00,VALID,916.977,VALID,0,VALID,92.953,VALID,0,VALID,20.5592,VALID,137,VALID,1.52121,
2007-04-06, 00:46:00,VALID,916.973,VALID,0,VALID,92.9823,VALID,-0.0169808,VALID,20.5592,VALID,149,VALID,1.81855,
2007-04-06, 00:47:00,VALID,916.925,VALID,0,VALID,92.878,VALID,-0.0339617,VALID,20.5687,VALID,166,VALID,2.05957,
2007-04-06, 00:48:00,VALID,916.911,VALID,0,VALID,92.5754,VALID,-0.0849042,VALID,20.6274,VALID,160,VALID,1.71875,
2007-04-06, 00:49:00,VALID,916.893,VALID,0,VALID,92.4266,VALID,-0.0339617,VALID,20.6533,VALID,145,VALID,1.48739,
2007-04-06, 00:50:00,VALID,916.863,VALID,0,VALID,92.4635,VALID,-0.0339617,VALID,20.6528,VALID,156,VALID,1.67206,
2007-04-06, 00:51:00,VALID,916.851,VALID,0,VALID,92.5436,VALID,-0.0509425,VALID,20.6366,VALID,146,VALID,1.34611,
2007-04-06, 00:52:00,VALID,916.846,VALID,0,VALID,92.6974,VALID,-0.0339617,VALID,20.6012,VALID,147,VALID,1.2016,
2007-04-06, 00:53:00,VALID,916.835,VALID,0,VALID,92.8983,VALID,-0.0339617,VALID,20.5557,VALID,144,VALID,1.34199,
2007-04-06, 00:54:00,VALID,916.83,VALID,0,VALID,93.0649,VALID,-0.0339617,VALID,20.5268,VALID,154,VALID,1.85039,
2007-04-06, 00:55:00,VALID,916.794,VALID,0,VALID,93.1043,VALID,-0.0169808,VALID,20.5168,VALID,161,VALID,1.96349,
2007-04-06, 00:56:00,VALID,916.772,VALID,0,VALID,93.0509,VALID,-0.0509425,VALID,20.5335,VALID,159,VALID,2.03142,
2007-04-06, 00:57:00,VALID,916.763,VALID,0,VALID,92.9327,VALID,-0.0169808,VALID,20.549,VALID,154,VALID,1.62882,
2007-04-06, 00:58:00,VALID,916.755,VALID,0,VALID,92.8831,VALID,-0.0339617,VALID,20.5687,VALID,144,VALID,1.56367,
2007-04-06, 00:59:00,VALID,916.751,VALID,0,VALID,92.9428,VALID,-0.0679233,VALID,20.5625,VALID,151,VALID,2.05523,
2007-04-06, 01:00:00,VALID,916.737,VALID,0,VALID,93.0369,VALID,-0.0849042,VALID,20.5525,VALID,160,VALID,1.9215,
2007-04-06, 01:01:00,VALID,916.753,VALID,0,VALID,93.1819,VALID,-0.101885,VALID,20.5268,VALID,162,VALID,1.72584,
2007-04-06, 01:02:00,VALID,916.75,VALID,0,VALID,93.2557,VALID,-0.101885,VALID,20.517,VALID,151,VALID,2.23171,
2007-04-06, 01:03:00,VALID,916.767,VALID,0,VALID,93.0904,VALID,-0.0849042,VALID,20.54,VALID,147,VALID,2.13548,
2007-04-06, 01:04:00,VALID,916.757,VALID,0,VALID,92.8704,VALID,-0.0849042,VALID,20.569,VALID,157,VALID,2.28507,
2007-04-06, 01:05:00,VALID,916.764,VALID,0,VALID,92.7458,VALID,-0.0679233,VALID,20.6014,VALID,152,VALID,1.78516,
2007-04-06, 01:06:00,VALID,916.763,VALID,0,VALID,92.6428,VALID,-0.101885,VALID,20.6147,VALID,153,VALID,1.94886,
2007-04-06, 01:07:00,VALID,916.757,VALID,0,VALID,92.3477,VALID,-0.118866,VALID,20.6598,VALID,157,VALID,1.69705,
2007-04-06, 01:08:00,VALID,916.749,VALID,0,VALID,92.1036,VALID,-0.101885,VALID,20.6926,VALID,159,VALID,2.53088,
2007-04-06, 01:09:00,VALID,916.747,VALID,0,VALID,91.862,VALID,-0.101885,VALID,20.7377,VALID,149,VALID,1.57774,
2007-04-06, 01:10:00,VALID,916.706,VALID,0,VALID,91.8442,VALID,-0.0849042,VALID,20.7537,VALID,144,VALID,1.83469,
2007-04-06, 01:11:00,VALID,916.685,VALID,0,VALID,91.8315,VALID,-0.0849042,VALID,20.7637,VALID,157,VALID,2.34484,
2007-04-06, 01:12:00,VALID,916.654,VALID,0,VALID,91.7247,VALID,-0.0679233,VALID,20.7802,VALID,156,VALID,1.93555,
2007-04-06, 01:13:00,VALID,916.654,VALID,0,VALID,91.7386,VALID,-0.0679233,VALID,20.7764,VALID,151,VALID,2.06577,
2007-04-06, 01:14:00,VALID,916.641,VALID,0,VALID,91.7208,VALID,0,VALID,20.7786,VALID,148,VALID,1.81086,
2007-04-06, 01:15:00,VALID,916.645,VALID,0,VALID,91.7336,VALID,0,VALID,20.7924,VALID,154,VALID,1.90565,
2007-04-06, 01:16:00,VALID,916.64,VALID,0,VALID,91.8455,VALID,0,VALID,20.7756,VALID,156,VALID,2.0026,
2007-04-06, 01:17:00,VALID,916.662,VALID,0,VALID,91.9179,VALID,0,VALID,20.7624,VALID,160,VALID,2.10696,
2007-04-06, 01:18:00,VALID,916.653,VALID,0,VALID,91.9065,VALID,0.0169808,VALID,20.7721,VALID,149,VALID,2.33594,
2007-04-06, 01:19:00,VALID,916.647,VALID,0,VALID,91.7933,VALID,0,VALID,20.8011,VALID,161,VALID,2.07344,
2007-04-06, 01:20:00,VALID,916.663,VALID,0,VALID,91.8277,VALID,0.0169808,VALID,20.7976,VALID,149,VALID,1.91181,
2007-04-06, 01:21:00,VALID,916.666,VALID,0,VALID,91.8976,VALID,0.0169808,VALID,20.7978,VALID,134,VALID,1.83242,
2007-04-06, 01:22:00,VALID,916.662,VALID,0,VALID,91.8683,VALID,0.0169808,VALID,20.8208,VALID,147,VALID,2.1769,
2007-04-06, 01:23:00,VALID,916.672,VALID,0,VALID,91.9294,VALID,0,VALID,20.8273,VALID,151,VALID,1.57533,
2007-04-06, 01:24:00,VALID,916.651,VALID,0,VALID,91.9688,VALID,0,VALID,20.827,VALID,159,VALID,2.49028,
2007-04-06, 01:25:00,VALID,916.666,VALID,0,VALID,91.9599,VALID,0,VALID,20.8368,VALID,148,VALID,2.26097,
2007-04-06, 01:26:00,VALID,916.653,VALID,0,VALID,92.0057,VALID,0,VALID,20.8465,VALID,149,VALID,1.73754,
2007-04-06, 01:27:00,VALID,916.655,VALID,0,VALID,92.0387,VALID,0,VALID,20.8273,VALID,138,VALID,2.0101,
2007-04-06, 01:28:00,VALID,916.666,VALID,0,VALID,92.0387,VALID,-0.0169808,VALID,20.85,VALID,145,VALID,2.32372,
2007-04-06, 01:29:00,VALID,916.674,VALID,0,VALID,92.0604,VALID,0,VALID,20.8568,VALID,151,VALID,2.35065,
2007-04-06, 01:30:00,VALID,916.664,VALID,0,VALID,92.2371,VALID,0,VALID,20.8303,VALID,151,VALID,2.05142,
2007-04-06, 01:31:00,VALID,916.666,VALID,0,VALID,92.4469,VALID,0,VALID,20.8076,VALID,148,VALID,1.98801,
2007-04-06, 01:32:00,VALID,916.646,VALID,0,VALID,92.5982,VALID,0.0339617,VALID,20.7816,VALID,142,VALID,1.89986,
2007-04-06, 01:33:00,VALID,916.642,VALID,0,VALID,92.5881,VALID,0.0169808,VALID,20.7719,VALID,125,VALID,1.68805,
2007-04-06, 01:34:00,VALID,916.62,VALID,0,VALID,92.6593,VALID,0.0169808,VALID,20.7659,VALID,107,VALID,2.00648,
2007-04-06, 01:35:00,VALID,916.588,VALID,0,VALID,92.719,VALID,0.0169808,VALID,20.7556,VALID,132,VALID,1.91797,
2007-04-06, 01:36:00,VALID,916.565,VALID,0,VALID,92.8144,VALID,-0.0169808,VALID,20.7462,VALID,129,VALID,1.48457,
2007-04-06, 01:37:00,VALID,916.525,VALID,0,VALID,92.8577,VALID,0.0169808,VALID,20.7264,VALID,142,VALID,1.7592,
2007-04-06, 01:38:00,VALID,916.51,VALID,0,VALID,92.611,VALID,0.0169808,VALID,20.7462,VALID,145,VALID,1.84003,
2007-04-06, 01:39:00,VALID,916.479,VALID,0,VALID,92.3401,VALID,0.0339617,VALID,20.7946,VALID,138,VALID,2.13058,
2007-04-06, 01:40:00,VALID,916.463,VALID,0,VALID,92.1405,VALID,0.0339617,VALID,20.84,VALID,138,VALID,1.96693,
2007-04-06, 01:41:00,VALID,916.473,VALID,0,VALID,92.0629,VALID,0,VALID,20.846,VALID,125,VALID,1.47266,
2007-04-06, 01:42:00,VALID,916.472,VALID,0,VALID,92.2333,VALID,0,VALID,20.8368,VALID,132,VALID,1.476,
2007-04-06, 01:43:00,VALID,916.467,VALID,0,VALID,92.3376,VALID,0,VALID,20.8176,VALID,146,VALID,2.03325,
2007-04-06, 01:44:00,VALID,916.47,VALID,0,VALID,92.3185,VALID,0,VALID,20.8278,VALID,146,VALID,1.7153,
2007-04-06, 01:45:00,VALID,916.463,VALID,0,VALID,92.2994,VALID,0.0169808,VALID,20.8205,VALID,154,VALID,1.86198,
2007-04-06, 01:46:00,VALID,916.43,VALID,0,VALID,92.1875,VALID,0.0169808,VALID,20.8305,VALID,155,VALID,1.95254,
2007-04-06, 01:47:00,VALID,916.401,VALID,0,VALID,92.1049,VALID,0.0169808,VALID,20.856,VALID,155,VALID,1.7707,
2007-04-06, 01:48:00,VALID,916.391,VALID,0,VALID,92.1684,VALID,-0.0169808,VALID,20.8533,VALID,158,VALID,1.48228,
2007-04-06, 01:49:00,VALID,916.386,VALID,0,VALID,92.4368,VALID,0,VALID,20.8111,VALID,152,VALID,1.63129,
2007-04-06, 01:50:00,VALID,916.378,VALID,0,VALID,92.6733,VALID,0,VALID,20.7624,VALID,150,VALID,1.60324,
2007-04-06, 01:51:00,VALID,916.391,VALID,0,VALID,92.8755,VALID,0,VALID,20.7267,VALID,154,VALID,1.7731,
2007-04-06, 01:52:00,VALID,916.394,VALID,0,VALID,93.0141,VALID,0,VALID,20.714,VALID,151,VALID,1.72066,
2007-04-06, 01:53:00,VALID,916.387,VALID,0,VALID,93.1438,VALID,0.0339617,VALID,20.6845,VALID,145,VALID,1.76172,
2007-04-06, 01:54:00,VALID,916.38,VALID,0,VALID,93.2671,VALID,0,VALID,20.6748,VALID,142,VALID,2.25142,
2007-04-06, 01:55:00,VALID,916.36,VALID,0,VALID,93.2417,VALID,0,VALID,20.6683,VALID,155,VALID,1.77925,
2007-04-06, 01:56:00,VALID,916.337,VALID,0,VALID,93.2201,VALID,0.0169808,VALID,20.6683,VALID,166,VALID,2.09553,
2007-04-06, 01:57:00,VALID,916.326,VALID,0,VALID,93.2277,VALID,0.0169808,VALID,20.6653,VALID,156,VALID,2.31468,
2007-04-06, 01:58:00,VALID,916.317,VALID,0,VALID,93.1425,VALID,-0.0169808,VALID,20.6785,VALID,153,VALID,2.2037,
2007-04-06, 01:59:00,VALID,916.307,VALID,0,VALID,93.1934,VALID,-0.0169808,VALID,20.6858,VALID,153,VALID,2.08299,
2007-04-06, 02:00:00,VALID,916.286,VALID,0,VALID,93.2735,VALID,-0.0169808,VALID,20.6693,VALID,158,VALID,1.78789,
2007-04-06, 02:01:00,VALID,916.267,VALID,0,VALID,93.337,VALID,-0.0169808,VALID,20.6628,VALID,151,VALID,2.28525,
2007-04-06, 02:02:00,VALID,916.255,VALID,0,VALID,93.3409,VALID,0,VALID,20.6596,VALID,164,VALID,2.05412,
2007-04-06, 02:03:00,VALID,916.245,VALID,0,VALID,93.4909,VALID,0,VALID,20.6298,VALID,160,VALID,1.82626,
2007-04-06, 02:04:00,VALID,916.239,VALID,0,VALID,93.641,VALID,0,VALID,20.6041,VALID,158,VALID,2.07924,
2007-04-06, 02:05:00,VALID,916.241,VALID,0,VALID,93.7859,VALID,-0.0169808,VALID,20.5847,VALID,152,VALID,2.13434,
2007-04-06, 02:06:00,VALID,916.237,VALID,0,VALID,93.88,VALID,-0.0339617,VALID,20.5655,VALID,155,VALID,1.72786,
2007-04-06, 02:07:00,VALID,916.249,VALID,0,VALID,93.9423,VALID,0,VALID,20.5452,VALID,147,VALID,2.13555,
2007-04-06, 02:08:00,VALID,916.225,VALID,0,VALID,93.7999,VALID,-0.0169808,VALID,20.5817,VALID,150,VALID,2.41707,
2007-04-06, 02:09:00,VALID,916.238,VALID,0,VALID,93.6956,VALID,-0.0509425,VALID,20.6112,VALID,154,VALID,1.86071,
2007-04-06, 02:10:00,VALID,916.223,VALID,0,VALID,93.7796,VALID,-0.0339617,VALID,20.5949,VALID,156,VALID,1.6942,
2007-04-06, 02:11:00,VALID,916.214,VALID,0,VALID,93.969,VALID,-0.0339617,VALID,20.5549,VALID,154,VALID,1.67188,
2007-04-06, 02:12:00,VALID,916.198,VALID,0,VALID,94.2806,VALID,-0.0169808,VALID,20.4968,VALID,157,VALID,1.74535,
2007-04-06, 02:13:00,VALID,916.189,VALID,0,VALID,94.5184,VALID,-0.0339617,VALID,20.4684,VALID,148,VALID,1.70052,
2007-04-06, 02:14:00,VALID,916.175,VALID,0,VALID,94.6277,VALID,-0.0169808,VALID,20.4421,VALID,153,VALID,1.69661,
2007-04-06, 02:15:00,VALID,916.151,VALID,0,VALID,94.6913,VALID,-0.0169808,VALID,20.4324,VALID,155,VALID,2.19425,
2007-04-06, 02:16:00,VALID,916.129,VALID,0,VALID,94.5222,VALID,-0.0339617,VALID,20.4616,VALID,147,VALID,2.79345,
2007-04-06, 02:17:00,VALID,916.133,VALID,0,VALID,94.2679,VALID,-0.0169808,VALID,20.5003,VALID,146,VALID,2.24146,
2007-04-06, 02:18:00,VALID,916.13,VALID,0,VALID,94.1725,VALID,0,VALID,20.516,VALID,144,VALID,2.16152,
2007-04-06, 02:19:00,VALID,916.144,VALID,0,VALID,94.1865,VALID,0,VALID,20.5192,VALID,148,VALID,1.65534,
2007-04-06, 02:20:00,VALID,916.143,VALID,0,VALID,94.3302,VALID,0,VALID,20.5,VALID,148,VALID,1.70098,
2007-04-06, 02:21:00,VALID,916.146,VALID,0,VALID,94.5069,VALID,-0.0169808,VALID,20.4776,VALID,151,VALID,2.0625,
2007-04-06, 02:22:00,VALID,916.145,VALID,0,VALID,94.6862,VALID,-0.0169808,VALID,20.4451,VALID,153,VALID,1.42039,
2007-04-06, 02:23:00,VALID,916.149,VALID,0,VALID,94.8172,VALID,-0.0339617,VALID,20.4192,VALID,142,VALID,1.98679,
2007-04-06, 02:24:00,VALID,916.158,VALID,0,VALID,94.774,VALID,-0.0169808,VALID,20.4456,VALID,139,VALID,2.21932,
2007-04-06, 02:25:00,VALID,916.151,VALID,0,VALID,94.6112,VALID,-0.0169808,VALID,20.4713,VALID,145,VALID,1.7302,
2007-04-06, 02:26:00,VALID,916.13,VALID,0,VALID,94.5641,VALID,0,VALID,20.4708,VALID,144,VALID,2.30629,
2007-04-06, 02:27:00,VALID,916.11,VALID,0,VALID,94.4497,VALID,0,VALID,20.4938,VALID,145,VALID,2.50645,
2007-04-06, 02:28:00,VALID,916.075,VALID,0,VALID,94.3009,VALID,-0.0169808,VALID,20.5227,VALID,142,VALID,2.4392,
2007-04-06, 02:29:00,VALID,916.034,VALID,0,VALID,94.1521,VALID,0,VALID,20.5449,VALID,147,VALID,2.02166,
2007-04-06, 02:30:00,VALID,915.991,VALID,0,VALID,94.0504,VALID,0,VALID,20.5652,VALID,156,VALID,1.79618,
2007-04-06, 02:31:00,VALID,915.962,VALID,0,VALID,93.9792,VALID,-0.0339617,VALID,20.5747,VALID,142,VALID,1.80562,
2007-04-06, 02:32:00,VALID,915.972,VALID,0,VALID,93.9767,VALID,0,VALID,20.5847,VALID,144,VALID,2.08381,
2007-04-06, 02:33:00,VALID,915.952,VALID,0,VALID,94.0263,VALID,0,VALID,20.5749,VALID,144,VALID,2.18471,
2007-04-06, 02:34:00,VALID,915.954,VALID,0,VALID,93.9436,VALID,-0.0169808,VALID,20.5909,VALID,145,VALID,2.56428,
2007-04-06, 02:35:00,VALID,915.952,VALID,0,VALID,93.7859,VALID,-0.0169808,VALID,20.6304,VALID,147,VALID,2.01199,
2007-04-06, 02:36:00,VALID,915.954,VALID,0,VALID,93.5532,VALID,-0.0169808,VALID,20.6466,VALID,144,VALID,2.71094,
2007-04-06, 02:37:00,VALID,915.972,VALID,0,VALID,93.3587,VALID,-0.0339617,VALID,20.679,VALID,144,VALID,2.06174,
2007-04-06, 02:38:00,VALID,915.972,VALID,0,VALID,93.2162,VALID,0,VALID,20.6953,VALID,146,VALID,2.12462,
2007-04-06, 02:39:00,VALID,915.969,VALID,0,VALID,93.2964,VALID,-0.0169808,VALID,20.6758,VALID,136,VALID,1.91648,
2007-04-06, 02:40:00,VALID,915.949,VALID,0,VALID,93.5392,VALID,-0.0339617,VALID,20.6404,VALID,147,VALID,1.76758,
2007-04-06, 02:41:00,VALID,915.936,VALID,0,VALID,93.7414,VALID,0,VALID,20.6004,VALID,141,VALID,2.06823,
2007-04-06, 02:42:00,VALID,915.932,VALID,0,VALID,93.8927,VALID,-0.0169808,VALID,20.5847,VALID,142,VALID,1.66588,
2007-04-06, 02:43:00,VALID,915.923,VALID,0,VALID,94.0708,VALID,-0.0169808,VALID,20.5387,VALID,135,VALID,1.98418,
2007-04-06, 02:44:00,VALID,915.908,VALID,0,VALID,94.1814,VALID,-0.0339617,VALID,20.523,VALID,133,VALID,2.2486,
2007-04-06, 02:45:00,VALID,915.885,VALID,0,VALID,94.2958,VALID,-0.0169808,VALID,20.5033,VALID,125,VALID,2.04342,
2007-04-06, 02:46:00,VALID,915.865,VALID,0,VALID,94.3225,VALID,-0.0169808,VALID,20.4838,VALID,132,VALID,1.56669,
2007-04-06, 02:47:00,VALID,915.832,VALID,0,VALID,94.4802,VALID,0,VALID,20.4486,VALID,118,VALID,1.72675,
2007-04-06, 02:48:00,VALID,915.842,VALID,0,VALID,94.6913,VALID,-0.0169808,VALID,20.3827,VALID,130,VALID,1.60733,
2007-04-06, 02:49:00,VALID,915.809,VALID,0,VALID,94.985,VALID,-0.0169808,VALID,20.3243,VALID,128,VALID,1.70845,
2007-04-06, 02:50:00,VALID,915.813,VALID,0,VALID,95.2584,VALID,-0.0679233,VALID,20.2734,VALID,142,VALID,1.48809,
2007-04-06, 02:51:00,VALID,915.83,VALID,0,VALID,95.453,VALID,-0.0509425,VALID,20.2339,VALID,137,VALID,1.86137,
2007-04-06, 02:52:00,VALID,915.857,VALID,0,VALID,95.5229,VALID,-0.0339617,VALID,20.2309,VALID,138,VALID,1.91982,
2007-04-06, 02:53:00,VALID,915.888,VALID,0,VALID,95.5039,VALID,-0.0169808,VALID,20.2277,VALID,130,VALID,2.09952,
2007-04-06, 02:54:00,VALID,915.907,VALID,0,VALID,95.4733,VALID,0,VALID,20.2107,VALID,134,VALID,1.96914,
2007-04-06, 02:55:00,VALID,915.924,VALID,0,VALID,95.5763,VALID,-0.0169808,VALID,20.2017,VALID,139,VALID,1.85958,
2007-04-06, 02:56:00,VALID,915.928,VALID,0,VALID,95.6005,VALID,-0.0339617,VALID,20.1915,VALID,137,VALID,1.97088,
2007-04-06, 02:57:00,VALID,915.947,VALID,0,VALID,95.5713,VALID,-0.0169808,VALID,20.2017,VALID,135,VALID,1.93693,
2007-04-06, 02:58:00,VALID,915.952,VALID,0,VALID,95.5598,VALID,-0.0339617,VALID,20.192,VALID,136,VALID,1.97891,
2007-04-06, 02:59:00,VALID,915.95,VALID,0,VALID,95.6374,VALID,-0.118866,VALID,20.183,VALID,139,VALID,1.94886,
2007-04-06, 03:00:00,VALID,915.936,VALID,0,VALID,95.7124,VALID,-0.118866,VALID,20.1808,VALID,138,VALID,2.15851,
2007-04-06, 03:01:00,VALID,915.938,VALID,0,VALID,95.706,VALID,-0.118866,VALID,20.1865,VALID,146,VALID,2.42987,
2007-04-06, 03:02:00,VALID,915.94,VALID,0,VALID,95.4403,VALID,-0.101885,VALID,20.222,VALID,149,VALID,2.14026,
2007-04-06, 03:03:00,VALID,915.928,VALID,0,VALID,95.1809,VALID,-0.101885,VALID,20.2644,VALID,145,VALID,2.19391,
2007-04-06, 03:04:00,VALID,915.925,VALID,0,VALID,95.0919,VALID,-0.0849042,VALID,20.2836,VALID,145,VALID,1.75236,
2007-04-06, 03:05:00,VALID,915.916,VALID,0,VALID,95.0804,VALID,-0.101885,VALID,20.2899,VALID,144,VALID,2.26036,
2007-04-06, 03:06:00,VALID,915.924,VALID,0,VALID,94.8515,VALID,-0.135847,VALID,20.3456,VALID,146,VALID,2.30043,
2007-04-06, 03:07:00,VALID,915.911,VALID,0,VALID,94.5947,VALID,-0.101885,VALID,20.4037,VALID,150,VALID,2.494,
2007-04-06, 03:08:00,VALID,915.912,VALID,0,VALID,94.4561,VALID,-0.101885,VALID,20.4164,VALID,142,VALID,1.89172,
2007-04-06, 03:09:00,VALID,915.895,VALID,0,VALID,94.409,VALID,-0.0849042,VALID,20.4391,VALID,138,VALID,1.80952,
2007-04-06, 03:10:00,VALID,915.893,VALID,0,VALID,94.395,VALID,-0.101885,VALID,20.4394,VALID,134,VALID,1.5932,
2007-04-06, 03:11:00,VALID,915.883,VALID,0,VALID,94.4967,VALID,-0.101885,VALID,20.4197,VALID,134,VALID,2.18648,
2007-04-06, 03:12:00,VALID,915.891,VALID,0,VALID,94.4764,VALID,-0.101885,VALID,20.4459,VALID,137,VALID,2.06974,
2007-04-06, 03:13:00,VALID,915.888,VALID,0,VALID,94.4281,VALID,-0.0849042,VALID,20.4489,VALID,143,VALID,1.98307,
2007-04-06, 03:14:00,VALID,915.91,VALID,0,VALID,94.4472,VALID,-0.0849042,VALID,20.4486,VALID,145,VALID,1.66788,
2007-04-06, 03:15:00,VALID,915.91,VALID,0,VALID,94.5095,VALID,-0.0679233,VALID,20.4424,VALID,140,VALID,1.89751,
2007-04-06, 03:16:00,VALID,915.923,VALID,0,VALID,94.3543,VALID,-0.0679233,VALID,20.4649,VALID,134,VALID,1.71151,
2007-04-06, 03:17:00,VALID,915.927,VALID,0,VALID,94.3035,VALID,-0.0509425,VALID,20.4813,VALID,142,VALID,1.29776,
2007-04-06, 03:18:00,VALID,915.927,VALID,0,VALID,94.4166,VALID,-0.0679233,VALID,20.4651,VALID,145,VALID,1.70964,
2007-04-06, 03:19:00,VALID,915.934,VALID,0,VALID,94.5387,VALID,-0.0679233,VALID,20.4456,VALID,145,VALID,1.7113,
2007-04-06, 03:20:00,VALID,915.956,VALID,0,VALID,94.6303,VALID,-0.101885,VALID,20.4391,VALID,150,VALID,2.05087,
2007-04-06, 03:21:00,VALID,915.954,VALID,0,VALID,94.6519,VALID,-0.101885,VALID,20.4262,VALID,146,VALID,1.4347,
2007-04-06, 03:22:00,VALID,915.96,VALID,0,VALID,94.6748,VALID,-0.101885,VALID,20.4299,VALID,137,VALID,1.54287,
2007-04-06, 03:23:00,VALID,915.959,VALID,0,VALID,94.7867,VALID,-0.101885,VALID,20.4197,VALID,134,VALID,1.4455,
2007-04-06, 03:24:00,VALID,915.944,VALID,0,VALID,94.9774,VALID,-0.0849042,VALID,20.3972,VALID,141,VALID,1.42272,
2007-04-06, 03:25:00,VALID,915.937,VALID,0,VALID,95.1567,VALID,-0.0849042,VALID,20.3613,VALID,137,VALID,1.52012,
2007-04-06, 03:26:00,VALID,915.918,VALID,0,VALID,95.3004,VALID,-0.0679233,VALID,20.3291,VALID,106,VALID,1.55687,
2007-04-06, 03:27:00,VALID,915.901,VALID,0,VALID,95.5,VALID,-0.0849042,VALID,20.2701,VALID,105,VALID,1.63027,
2007-04-06, 03:28:00,VALID,915.878,VALID,0,VALID,95.8777,VALID,-0.0849042,VALID,20.1893,VALID,102,VALID,1.49461,
2007-04-06, 03:29:00,VALID,915.873,VALID,0,VALID,96.2172,VALID,-0.101885,VALID,20.1438,VALID,113,VALID,1.54906,
2007-04-06, 03:30:00,VALID,915.854,VALID,0,VALID,96.4665,VALID,-0.0849042,VALID,20.1114,VALID,115,VALID,1.4359,
2007-04-06, 03:31:00,VALID,915.851,VALID,0,VALID,96.5784,VALID,-0.101885,VALID,20.0989,VALID,114,VALID,1.58994,
2007-04-06, 03:32:00,VALID,915.819,VALID,0,VALID,96.4766,VALID,-0.0849042,VALID,20.1249,VALID,123,VALID,1.769,
2007-04-06, 03:33:00,VALID,915.796,VALID,0,VALID,96.3711,VALID,-0.0849042,VALID,20.1309,VALID,123,VALID,1.30868,